Powrót do katalogu

COSMOS 1275 DEB

AktywnyPO
NORAD 42203·DEBRIS·🇷🇺 Russia

Wystrzelony Jun 4, 1981 z Plesetsk Cosmodrome

Loading…

Następne Przeloty (najbliższe 24 godziny)

TLE

Starzejące sięSource: Space-Track

Epoka: Sep 9, 2026, 03:49 UTC

1 42203U 81053TT  26252.15919304  .00000981  00000-0  95139-3 0  9995
2 42203  82.9959 203.0667 0113962 194.9642 225.1425 13.75907674640006

Śledź COSMOS 1275 DEB w czasie rzeczywistym z AllMySat

Download on the App Store